Location: Branche des Alpilles
(43.6087°N, 4.6976°E)
Time: 09:13:23
(UTC+00:00)

Lacrosse 5 rocket - Pass Details

Date: 30 November 2020
Orbit: 461 x 634 km, 57.0° (Epoch: 25 January)

Event Time Altitude Azimuth Distance (km) Brightness Sun altitude
Rises 18:27:22 0° 280° (W) 2,510 5.9 -25.0°
Reaches altitude 10° 18:30:19 10° 306° (NW) 1,620 4.3 -25.5°
Enters shadow 18:31:52 14° 331° (NNW) 1,382 3.6 -25.8°
